SCU1 RPMD-RPMD

Flight info

Callsign SCU1
Flight time N/A
Altitude 9000
Route ARPAS
Aircraft PA24/L-SDGRY/S

Departure

Time 2026-04-28 04:38
Airport Francisco Bangoy International Airport (RPMD)

Arrival

Time N/A
Airport Francisco Bangoy International Airport (RPMD)
Time Latitude Longitude Altitude Speed Heading
2026-04-28 04:33 7.12970 125.65285 111 ft 0 kts 139°
2026-04-28 04:35 7.12972 125.65291 112 ft 4 kts 28°
2026-04-28 04:35 7.13029 125.65265 111 ft 13 kts 326°
2026-04-28 04:35 7.13085 125.65211 111 ft 7 kts 266°
2026-04-28 04:36 7.13059 125.65168 111 ft 11 kts 229°
2026-04-28 04:36 7.12968 125.65062 112 ft 27 kts 229°
2026-04-28 04:36 7.12863 125.64926 112 ft 12 kts 256°
2026-04-28 04:36 7.12855 125.64932 112 ft 5 kts 44°
2026-04-28 04:37 7.12977 125.65068 112 ft 52 kts 52°
2026-04-28 04:37 7.13275 125.65402 244 ft 63 kts 41°
2026-04-28 04:37 7.13586 125.65755 344 ft 71 kts 50°
2026-04-28 04:37 7.13897 125.66151 497 ft 71 kts 51°
2026-04-28 04:38 7.14180 125.66566 646 ft 71 kts 57°
2026-04-28 04:38 7.14456 125.66956 820 ft 67 kts 46°
2026-04-28 04:38 7.14762 125.67314 949 ft 67 kts 47°
2026-04-28 04:38 7.15062 125.67675 1093 ft 67 kts 44°
2026-04-28 04:39 7.15378 125.68026 1203 ft 69 kts 48°
2026-04-28 04:39 7.15703 125.68409 1330 ft 71 kts 50°
2026-04-28 04:39 7.16008 125.68810 1450 ft 72 kts 68°
2026-04-28 04:39 7.16023 125.69282 1600 ft 68 kts 105°
2026-04-28 04:40 7.15728 125.69652 1742 ft 69 kts 137°
2026-04-28 04:40 7.15333 125.69937 1866 ft 69 kts 138°
2026-04-28 04:40 7.14858 125.70081 1984 ft 73 kts 171°
2026-04-28 04:40 7.14357 125.69928 2115 ft 77 kts 204°
2026-04-28 04:41 7.13896 125.69631 2227 ft 80 kts 206°
2026-04-28 04:41 7.13444 125.69319 2363 ft 78 kts 208°
2026-04-28 04:41 7.12994 125.69010 2473 ft 79 kts 205°
2026-04-28 04:41 7.12534 125.68690 2600 ft 80 kts 206°
2026-04-28 04:42 7.12014 125.68343 2617 ft 95 kts 207°
2026-04-28 04:42 7.11501 125.68005 2850 ft 80 kts 206°
2026-04-28 04:42 7.11047 125.67694 3000 ft 77 kts 205°
2026-04-28 04:42 7.10568 125.67371 3053 ft 89 kts 208°
2026-04-28 04:43 7.10003 125.66997 3057 ft 103 kts 207°
2026-04-28 04:43 7.09404 125.66612 3221 ft 95 kts 206°
2026-04-28 04:43 7.08876 125.66269 3405 ft 87 kts 207°
2026-04-28 04:43 7.08357 125.65929 3524 ft 88 kts 208°
2026-04-28 04:44 7.07848 125.65594 3646 ft 88 kts 207°
2026-04-28 04:44 7.07306 125.65314 3773 ft 85 kts 180°
2026-04-28 04:44 7.06747 125.65435 3874 ft 82 kts 150°
2026-04-28 04:44 7.06221 125.65662 4004 ft 81 kts 148°
2026-04-28 04:45 7.05702 125.65898 4114 ft 82 kts 148°
2026-04-28 04:45 7.05177 125.66138 4241 ft 82 kts 147°
2026-04-28 04:45 7.04649 125.66378 4351 ft 83 kts 147°
2026-04-28 04:45 7.04117 125.66617 4474 ft 83 kts 148°
2026-04-28 04:46 7.03585 125.66861 4590 ft 85 kts 147°
2026-04-28 04:46 7.02990 125.67140 4589 ft 100 kts 149°
2026-04-28 04:46 7.02349 125.67456 4616 ft 107 kts 149°
2026-04-28 04:46 7.01656 125.67800 4618 ft 111 kts 149°
2026-04-28 04:47 7.00989 125.68124 4607 ft 101 kts 150°
2026-04-28 04:47 7.00365 125.68430 4614 ft 99 kts 147°
2026-04-28 04:47 6.99716 125.68717 4618 ft 104 kts 155°
2026-04-28 04:47 6.99007 125.68913 4610 ft 107 kts 161°
2026-04-28 04:48 6.98274 125.69084 4617 ft 108 kts 161°
2026-04-28 04:48 6.97529 125.69261 4605 ft 108 kts 160°
2026-04-28 04:48 6.96959 125.69685 4607 ft 101 kts 115°
2026-04-28 04:48 6.96882 125.70352 4613 ft 97 kts 75°
2026-04-28 04:49 6.97155 125.70972 4609 ft 97 kts 61°
2026-04-28 04:49 6.97479 125.71578 4605 ft 98 kts 61°
2026-04-28 04:49 6.97807 125.72185 4614 ft 97 kts 61°
2026-04-28 04:49 6.98138 125.72780 4614 ft 98 kts 57°
2026-04-28 04:50 6.98525 125.73358 4618 ft 99 kts 56°
2026-04-28 04:50 6.98916 125.73933 4612 ft 100 kts 55°
2026-04-28 04:50 6.99311 125.74509 4609 ft 100 kts 55°
2026-04-28 04:50 6.99744 125.75056 4613 ft 99 kts 44°
2026-04-28 04:51 7.00258 125.75534 4617 ft 99 kts 45°
2026-04-28 04:51 7.00758 125.76012 4619 ft 98 kts 44°
2026-04-28 04:51 7.01265 125.76492 4612 ft 98 kts 44°
2026-04-28 04:51 7.01777 125.76950 4623 ft 98 kts 37°
2026-04-28 04:52 7.02358 125.77311 4617 ft 99 kts 33°
2026-04-28 04:52 7.02962 125.77672 4621 ft 99 kts 33°
2026-04-28 04:52 7.03558 125.78027 4619 ft 99 kts 33°
2026-04-28 04:52 7.04166 125.78387 4619 ft 100 kts 32°
2026-04-28 04:53 7.04794 125.78703 4617 ft 100 kts 32°
2026-04-28 04:53 7.05401 125.79058 4614 ft 100 kts 35°
2026-04-28 04:53 7.05973 125.79468 4618 ft 100 kts 40°
2026-04-28 04:53 7.06527 125.79890 4613 ft 100 kts 35°
2026-04-28 04:54 7.07143 125.80237 4612 ft 100 kts 32°
2026-04-28 04:54 7.07753 125.80580 4613 ft 101 kts 32°
2026-04-28 04:54 7.08372 125.80927 4611 ft 101 kts 31°
2026-04-28 04:54 7.09004 125.81247 4613 ft 102 kts 18°
2026-04-28 04:55 7.09704 125.81381 4610 ft 102 kts 13°
2026-04-28 04:55 7.10417 125.81500 4616 ft 102 kts 12°
2026-04-28 04:55 7.11132 125.81616 4612 ft 103 kts 12°
2026-04-28 04:55 7.11846 125.81720 4613 ft 104 kts
2026-04-28 04:56 7.12570 125.81709 4612 ft 104 kts
2026-04-28 04:56 7.13300 125.81681 4613 ft 103 kts
2026-04-28 04:56 7.14008 125.81650 4615 ft 101 kts
2026-04-28 04:56 7.14731 125.81602 4618 ft 103 kts 355°
2026-04-28 04:57 7.15444 125.81464 4615 ft 104 kts 352°
2026-04-28 04:57 7.16164 125.81311 4613 ft 105 kts 353°
2026-04-28 04:57 7.16894 125.81152 4617 ft 106 kts 352°
2026-04-28 04:57 7.17613 125.80973 4608 ft 107 kts 343°
2026-04-28 04:58 7.18315 125.80673 4618 ft 107 kts 341°
2026-04-28 04:58 7.19006 125.80368 4608 ft 108 kts 340°
2026-04-28 04:58 7.19705 125.80066 4607 ft 107 kts 344°
2026-04-28 04:58 7.20409 125.79805 4610 ft 106 kts 345°
2026-04-28 04:59 7.21082 125.79487 4605 ft 107 kts 336°
2026-04-28 04:59 7.21742 125.79120 4602 ft 108 kts 336°
2026-04-28 04:59 7.22406 125.78747 4601 ft 108 kts 335°
2026-04-28 04:59 7.23008 125.78281 4597 ft 109 kts 325°
2026-04-28 05:00 7.23618 125.77808 4596 ft 109 kts 327°
2026-04-28 05:00 7.24226 125.77338 4589 ft 109 kts 323°
2026-04-28 05:00 7.24754 125.76777 4588 ft 111 kts 315°
2026-04-28 05:00 7.25248 125.76172 4588 ft 111 kts 314°
2026-04-28 05:01 7.25745 125.75562 4583 ft 111 kts 314°
2026-04-28 05:01 7.26248 125.74950 4579 ft 112 kts 314°
2026-04-28 05:01 7.26702 125.74302 4578 ft 113 kts 306°
2026-04-28 05:01 7.27121 125.73624 4582 ft 113 kts 306°
2026-04-28 05:02 7.27629 125.73022 4527 ft 109 kts 348°
2026-04-28 05:02 7.27878 125.73468 4567 ft 98 kts 118°
2026-04-28 05:02 7.27229 125.73608 4564 ft 112 kts 206°
2026-04-28 05:02 7.26999 125.72914 4566 ft 110 kts 297°
2026-04-28 05:03 7.27599 125.72668 4565 ft 97 kts 27°
2026-04-28 05:03 7.27759 125.73241 4567 ft 99 kts 117°
2026-04-28 05:03 7.27100 125.73370 4566 ft 112 kts 206°
2026-04-28 05:03 7.26876 125.72672 4567 ft 111 kts 296°
2026-04-28 05:04 7.27494 125.72407 4565 ft 99 kts 26°
2026-04-28 05:04 7.27686 125.72979 4560 ft 99 kts 115°
2026-04-28 05:04 7.27038 125.73145 4556 ft 112 kts 203°
2026-04-28 05:04 7.26785 125.72459 4556 ft 111 kts 293°
2026-04-28 05:05 7.27384 125.72166 4568 ft 98 kts 16°
2026-04-28 05:05 7.28078 125.72137 4572 ft 101 kts
2026-04-28 05:05 7.28683 125.72413 4569 ft 96 kts 51°
2026-04-28 05:05 7.28926 125.73034 4572 ft 97 kts 76°
2026-04-28 05:06 7.29062 125.73713 4570 ft 98 kts 77°
2026-04-28 05:06 7.29192 125.74383 4567 ft 98 kts 77°
2026-04-28 05:06 7.29302 125.75062 4562 ft 98 kts 88°